This is the latest recevied weather packets stored in our database for station/object K8RLH. If no packets are shown the sender has not sent any weather packets the latest 10 day(s).
| Time | Temp. | Humidity | Pressure | Rain* | Wind** | Luminosity | Snow |
|---|---|---|---|---|---|---|---|
| 1777576072 | 23.33° C | 59% | 1011.8 hPa | 0 mm | - | 198 W/m² | - |
| 1777575768 | 23.33° C | 58% | 1011.9 hPa | 0 mm | - | 398 W/m² | - |
| 1777575464 | 23.33° C | 59% | 1011.9 hPa | 0 mm | - | 149 W/m² | - |
| 1777575160 | 22.78° C | 61% | 1012.2 hPa | 0 mm | - | 170 W/m² | - |
| 1777574856 | 22.78° C | 58% | 1012 hPa | 0 mm | - | 159 W/m² | - |
| 1777574554 | 22.22° C | 59% | 1011.9 hPa | 0 mm | - | 147 W/m² | - |
| 1777574250 | 22.22° C | 60% | 1012.2 hPa | 0 mm | - | 130 W/m² | - |
| 1777573945 | 21.67° C | 60% | 1012.2 hPa | 0 mm | - | 96 W/m² | - |
| 1777573640 | 21.67° C | 61% | 1012.4 hPa | 0 mm | - | 123 W/m² | - |
| 1777573336 | 21.67° C | 62% | 1012.4 hPa | 0 mm | - | 164 W/m² | - |
| 1777573032 | 21.67° C | 60% | 1012.4 hPa | 0 mm | - | 156 W/m² | - |
| 1777572729 | 21.67° C | 61% | 1012.3 hPa | 0 mm | - | 143 W/m² | - |
| 1777572429 | 21.67° C | 61% | 1012.4 hPa | 0 mm | - | 136 W/m² | - |
| 1777572125 | 21.67° C | 62% | 1012.4 hPa | 0 mm | - | 153 W/m² | - |
| 1777571821 | 21.67° C | 62% | 1012.8 hPa | 0 mm | - | 114 W/m² | - |
| 1777571517 | 22.22° C | 62% | 1012.6 hPa | 0 mm | - | 116 W/m² | - |
| 1777571214 | 21.67° C | 62% | 1012.6 hPa | 0 mm | - | 191 W/m² | - |
| 1777570909 | 21.67° C | 61% | 1012.7 hPa | 0 mm | - | 168 W/m² | - |
| 1777570605 | 21.67° C | 62% | 1012.7 hPa | 0 mm | - | 189 W/m² | - |
| 1777570303 | 21.67° C | 61% | 1012.6 hPa | 0 mm | - | 190 W/m² | - |
| 1777569998 | 21.67° C | 64% | 1012.6 hPa | 0 mm | - | 183 W/m² | - |
| 1777569694 | 21.67° C | 64% | 1012.6 hPa | 0 mm | - | 200 W/m² | - |
| 1777569390 | 21.11° C | 64% | 1012.7 hPa | 0 mm | - | 199 W/m² | - |
| 1777569087 | 21.11° C | 64% | 1013.1 hPa | 0 mm | - | 199 W/m² | - |
| 1777568783 | 21.11° C | 67% | 1013 hPa | 0 mm | - | 185 W/m² | - |
* Rain latest hour (hover to see other rain measurements)
** Current wind speed in m/s (hover to see current wind gust speed)